Location: Wiesbaden
(50.0830°N, 8.2500°E)
Time: 19:39:19
(UTC+02:00)

ISS - Pass Details

Date: 12 July 2019
Orbit: 409 x 418 km, 51.6° (Epoch: 20 July)

Event Time Altitude Azimuth Distance (km) Brightness Sun altitude
Exits shadow 01:39:35 36° 117° (ESE) 668 -3.0 -17.9°
Drops below altitude 10° 01:42:03 10° 79° (E) 1,482 -0.8 -17.8°
Sets 01:44:11 0° 73° (ENE) 2,345 0.3 -17.8°
